Location: Bletchingley
(51.2333°N, 0.1000°W)
Time: 23:19:27
(UTC+00:00)

MOS 1 - Pass Details

Date: 18 September 2020
Orbit: 878 x 891 km, 99.1° (Epoch: 30 October)

Event Time Altitude Azimuth Distance (km) Brightness Sun altitude
Exits shadow 19:23:28 - 154° (SSE) 2,959 6.6 -12.6°
Reaches altitude 10° 19:24:31 10° 153° (SSE) 2,553 6.3 -12.7°
Maximum altitude 19:30:11 72° 70° (ENE) 939 4.3 -13.6°
Drops below altitude 10° 19:35:53 10° 347° (NNW) 2,573 7.2 -14.4°
Sets 19:38:18 0° 346° (NNW) 3,517 8.0 -14.8°
